Вернуться в каталог

STARLINK-4645

АктивенСвязьVLEO
NORAD 53743·PAYLOAD·🇺🇸 United States

Запущен Sep 5, 2022 с Cape Canaveral Space Force Station

Loading…

Ближайшие Пролёты (ближайшие 24 часа)

TLE

СвежийSource: CelesTrak SupGP

Эпоха: Sep 15, 2026, 03:02 UTC

1 53743C 22107AV  26258.12687500  .00027710  00000+0  81877-3 0  2584
2 53743  53.1560 118.7075 0001216  82.9023  30.8346 15.34373518    12

Отслеживайте STARLINK-4645 в реальном времени с AllMySat

Download on the App Store